Location: Unspecified
(0.0000°N, 0.0000°E)
Time: 04:48:32
(UTC+00:00)

deb Centaur AC-2 - Pass Details

Date: 13 August 2024
Orbit: 582 x 982 km, 29.9° (Epoch: 09 September)

Event Time Altitude Azimuth Distance (km) Brightness Sun altitude
Exits shadow 03:33:30 27° 11° (N) 1,757 ? -36.4°
Drops below altitude 10° 03:36:55 10° 34° (NE) 2,668 ? -35.6°
Sets 03:39:42 0° 43° (NE) 3,568 ? -35.0°
